Location: ???
(32.3885°N, 98.2106°E)
Time: 12:57:21
(UTC+00:00)

STARLINK-36524 - Pass Details

Date: 17 January 2026
Orbit: 272 x 275 km, 43.0° (Epoch: 20 January)

Event Time Altitude Azimuth Distance (km) Brightness Sun altitude
Exits shadow 23:34:50 11° 346° (NNW) 927 3.5 -11.4°
Drops below altitude 10° 23:35:32 10° 4° (N) 989 3.8 -11.2°
Sets 23:38:15 0° 44° (NE) 1,783 5.6 -10.7°
